Location: Ajisawe
(8.4333°N, 4.3833°E)
Time: 01:12:10
(UTC+00:00)

Courier 1B Rocket - Pass Details

Date: 28 April 2021
Orbit: 920 x 1202 km, 28.3° (Epoch: 13 May)

Event Time Altitude Azimuth Distance (km) Brightness Sun altitude
Rises 12:33:20 0° 237° (WSW) 3,719 8.1 75.7°
Reaches altitude 10° 12:36:04 10° 236° (SW) 2,730 7.6 75.0°
Maximum altitude 12:42:38 77° 151° (SSE) 967 6.4 73.6°
Drops below altitude 10° 12:48:52 10° 65° (ENE) 2,608 7.3 72.1°
Sets 12:51:27 0° 64° (ENE) 3,544 7.8 71.5°
